[[{"header":{"parameterUnit":"m.s-1","parameterCategory":1,"la1":30.2991,"la2":30.254,"lo1":-89.0895,"lo2":-89.0444,"dy":0.0017,"dx":0.0017,"nx":28,"ny":28,"refTime":"2025-12-11T09:00:00:Z","depth":0,"parameterNumber":2,"parameterNumberName":"U-component_of_WINDS"},"data":[0,0,0,0,0,0,0,0,0,0,0,0,0,0,0,0,0,0,0,0,0,0,0,0,0,0,0,0,0,0,0,0,0,0,0,0,0,0,0,0,0,0,0,0,0,0,0,0,0,0,0,0,0,0,0,0,0,0,-0.3979,-0.3979,0,-0.3943,-0.3942,-0.3942,-0.3876,-0.3874,-0.3873,-0.3872,-0.3836,-0.3836,-0.3836,0,0,0,0,0,0,0,0,0,0,0,0,0,-0.3995,-0.3995,-0.398,-0.3979,-0.3979,-0.3943,-0.3942,-0.3942,-0.3876,-0.3874,-0.3873,-0.3871,-0.3836,-0.3836,-0.3836,0,0,0,0,0,0,0,0,0,0,0,0,0,-0.3977,-0.3995,-0.398,-0.3941,-0.3938,-0.3943,-0.3942,-0.3942,-0.3876,-0.3874,-0.3872,-0.3871,-0.3836,-0.3836,-0.3836,-0.3876,0,0,-0.3837,-0.3837,0,0,0,0,0,0,0,0,-0.3978,-0.3976,-0.3948,-0.3944,-0.394,-0.3912,-0.3934,-0.392,-0.3877,-0.39,-0.3872,-0.387,-0.3863,-0.3861,-0.3858,-0.3874,-0.3873,-0.3837,-0.3837,-0.3837,-0.3838,0,0,0,0,0,0,0,-0.3979,-0.3977,-0.3965,-0.3947,-0.3943,-0.3927,-0.3922,-0.3931,-0.3892,-0.3897,-0.3893,-0.3889,-0.386,-0.3858,-0.3857,-0.3872,-0.3837,-0.3837,-0.3838,-0.3838,-0.3921,-0.3923,0,0,0,0,0,0,-0.3986,-0.3979,-0.3966,-0.3964,-0.3954,-0.3928,-0.3923,-0.3923,-0.3892,-0.3885,-0.3891,-0.3886,-0.3858,-0.3856,-0.3855,-0.3901,-0.3837,-0.3838,-0.3838,-0.3919,-0.3922,-0.3924,0,0,0,0,0,0,-0.3986,-0.3985,-0.3968,-0.397,-0.3967,-0.393,-0.393,-0.3923,-0.392,-0.3887,-0.388,-0.3895,-0.3857,-0.3855,-0.3872,-0.3899,-0.3838,-0.3838,-0.3917,-0.392,-0.3923,-0.3993,0,0,0,0,0,0,-0.3987,-0.3986,-0.4,-0.3971,-0.3967,-0.3984,-0.3932,-0.3924,-0.3921,-0.3915,-0.3889,-0.3883,-0.3855,-0.3872,-0.3872,-0.3898,-0.3838,-0.3914,-0.3918,-0.3922,-0.3988,-0.3998,-0.4006,0,0,0,0,0,-0.3988,-0.4021,-0.4001,-0.4,-0.3984,-0.3986,-0.3984,-0.395,-0.3923,-0.3938,-0.3917,-0.3884,-0.3896,-0.3874,-0.3874,-0.3901,-0.3913,-0.3917,-0.3922,-0.3984,-0.3996,-0.4006,0,0,0,0,0,0,-0.4055,-0.4016,-0.3994,-0.4018,-0.4006,-0.3975,-0.3992,-0.3964,-0.3959,-0.3953,-0.3912,-0.3907,-0.393,-0.3916,-0.3893,-0.3938,-0.3899,-0.3904,-0.3946,-0.3958,-0.3967,-0.397,-0.3839,0,0,0,0,0,-0.4072,-0.4077,-0.4043,-0.4068,-0.4063,-0.4029,-0.4029,-0.4004,-0.399,-0.3984,-0.3964,-0.3952,-0.3953,-0.3954,-0.3953,-0.3985,-0.398,-0.4004,-0.4013,-0.4021,-0.4026,-0.4044,-0.4055,-0.3939,-0.3939,-0.3939,0,0,-0.4109,-0.4088,-0.4094,-0.4081,-0.4069,-0.4075,-0.4025,-0.4034,-0.4039,-0.3985,-0.4001,-0.3986,-0.3969,-0.3995,-0.4005,-0.3984,-0.4057,-0.4027,-0.4033,-0.4034,-0.405,-0.4061,-0.4071,-0.3942,-0.3942,-0.3941,0,0,-0.4179,-0.4163,-0.4183,-0.4172,-0.4153,-0.413,-0.4135,-0.4109,-0.4097,-0.4111,-0.4072,-0.4077,-0.4079,-0.407,-0.4066,-0.4134,-0.4104,-0.4134,-0.4183,-0.4201,-0.421,-0.4218,-0.4244,-0.4254,-0.4139,-0.4139,-0.4139,0,-0.4226,-0.4234,-0.4197,-0.4209,-0.4205,-0.4157,-0.4178,-0.4169,-0.4151,-0.415,-0.4127,-0.413,-0.4116,-0.4139,-0.4156,-0.4153,-0.4159,-0.4137,-0.4212,-0.4219,-0.4226,-0.4251,-0.426,-0.4143,-0.4143,-0.4142,-0.4142,0,-0.4295,-0.4301,-0.4319,-0.4304,-0.4302,-0.4318,-0.4285,-0.4287,-0.4263,-0.4243,-0.426,-0.4241,-0.4236,-0.4239,-0.4215,-0.426,-0.4248,-0.4219,-0.4179,-0.4242,-0.4264,-0.4273,-0.4149,-0.4147,-0.4146,-0.4145,0,0,-0.4406,-0.437,-0.4378,-0.4371,-0.4347,-0.4352,-0.4367,-0.4362,-0.4366,-0.4355,-0.4368,-0.4371,-0.4345,-0.434,-0.4314,-0.433,-0.4388,-0.4299,-0.4298,-0.4318,-0.4438,-0.4461,-0.4472,-0.4368,-0.4369,-0.437,-0.444,0,-0.4472,-0.4495,-0.4462,-0.4493,-0.4499,-0.4454,-0.4467,-0.4455,-0.4437,-0.444,-0.442,-0.4424,-0.4387,-0.4384,-0.4398,-0.4378,-0.4411,-0.4372,-0.438,-0.4381,-0.4387,-0.4483,-0.4507,-0.4574,-0.4448,-0.4449,-0.445,0,-0.4552,-0.4547,-0.4578,-0.4554,-0.4555,-0.4567,-0.4561,-0.4564,-0.455,-0.4536,-0.4531,-0.4501,-0.4515,-0.4476,-0.4495,-0.4469,-0.447,-0.4461,-0.4463,-0.4464,-0.4421,-0.4488,-0.4594,-0.4605,-0.4463,-0.4462,-0.4461,0,-0.4633,-0.4632,-0.4651,-0.4647,-0.4619,-0.4629,-0.4618,-0.4601,-0.4601,-0.4596,-0.4595,-0.4592,-0.459,-0.4588,-0.4559,-0.4533,-0.4583,-0.454,-0.4573,-0.4574,-0.4587,-0.4586,-0.4696,-0.4585,-0.4585,-0.4585,-0.4584,0,-0.4711,-0.4732,-0.4687,-0.4699,-0.4722,-0.4685,-0.4709,-0.4693,-0.4679,-0.4688,-0.4649,-0.4658,-0.4618,-0.4623,-0.46,-0.4621,-0.462,-0.461,-0.4604,-0.4615,-0.4616,-0.4616,-0.4611,-0.4587,-0.4587,-0.4586,-0.4586,0,-0.4805,-0.4775,-0.4793,-0.4766,-0.4759,-0.4778,-0.4755,-0.4765,-0.4744,-0.4756,-0.4757,-0.4725,-0.473,-0.47,-0.4699,-0.4683,-0.4716,-0.4701,-0.4721,-0.4717,-0.4752,-0.475,-0.4866,-0.488,-0.4759,-0.476,-0.4761,0,-0.4858,-0.4873,-0.4847,-0.485,-0.4841,-0.4847,-0.4846,-0.481,-0.4812,-0.4797,-0.481,-0.4811,-0.481,-0.482,-0.4797,-0.4797,-0.4783,-0.4823,-0.4782,-0.4793,-0.4785,-0.4786,-0.4788,-0.4833,-0.4834,-0.4835,-0.4836,0,-0.4955,-0.494,-0.494,-0.4936,-0.4937,-0.4932,-0.4925,-0.493,-0.4891,-0.4895,-0.4899,-0.4898,-0.4897,-0.49,-0.4895,-0.4884,-0.4855,-0.4849,-0.4857,-0.4869,-0.488,-0.4876,-0.4746,-0.4847,-0.4846,-0.4845,-0.4844,-0.4844,-0.5031,-0.5043,-0.5027,-0.503,-0.502,-0.5015,-0.5024,-0.5005,-0.5007,-0.5004,-0.4982,-0.4991,-0.4978,-0.4968,-0.496,-0.4967,-0.4948,-0.4959,-0.4962,-0.4966,-0.4973,-0.4878,-0.4966,-0.4966,-0.4965,-0.4965,-0.4965,0,-0.5127,-0.5115,-0.5118,-0.5109,-0.5111,-0.5082,-0.5073,-0.5077,-0.5085,-0.5075,-0.5075,-0.5081,-0.5083,-0.5061,-0.5061,-0.5071,-0.5057,-0.5072,-0.5072,-0.507,-0.4989,-0.4983,-0.5083,-0.5083,-0.5083,-0.5083,-0.5083,-0.5083,-0.5178,-0.5198,-0.5181,-0.5197,-0.5184,-0.5192,-0.5189,-0.5185,-0.5176,-0.5184,-0.5186,-0.5172,-0.5157,-0.5156,-0.5157,-0.5151,-0.5153,-0.5173,-0.5162,-0.5087,-0.5076,-0.5065,-0.5059,-0.5174,-0.5174,-0.5243,-0.5244,-0.5244]},{"header":{"parameterUnit":"m.s-1","parameterCategory":1,"la1":30.2991,"la2":30.254,"lo1":-89.0895,"lo2":-89.0444,"dy":0.0017,"dx":0.0017,"nx":28,"ny":28,"refTime":"2025-12-11T09:00:00:Z","depth":0,"parameterNumber":3,"parameterNumberName":"V-component_of_WINDS"},"data":[0,0,0,0,0,0,0,0,0,0,0,0,0,0,0,0,0,0,0,0,0,0,0,0,0,0,0,0,0,0,0,0,0,0,0,0,0,0,0,0,0,0,0,0,0,0,0,0,0,0,0,0,0,0,0,0,0,0,2.0365,2.0364,0,2.0324,2.0323,2.0323,2.0308,2.0308,2.0308,2.0308,2.0262,2.0261,2.026,0,0,0,0,0,0,0,0,0,0,0,0,0,2.0426,2.0425,2.0365,2.0364,2.0364,2.0324,2.0323,2.0323,2.0308,2.0308,2.0308,2.0308,2.0263,2.0261,2.026,0,0,0,0,0,0,0,0,0,0,0,0,0,2.0393,2.0424,2.0365,2.0352,2.035,2.0324,2.0323,2.0323,2.0308,2.0308,2.0308,2.0309,2.0263,2.0261,2.0259,2.0242,0,0,2.0253,2.0252,0,0,0,0,0,0,0,0,2.0395,2.0391,2.0354,2.0353,2.0351,2.0321,2.0328,2.0296,2.0308,2.0324,2.0308,2.0309,2.0282,2.0278,2.027,2.024,2.0238,2.0253,2.0252,2.0251,2.025,0,0,0,0,0,0,0,2.0397,2.0393,2.0348,2.0354,2.0351,2.0346,2.0342,2.0322,2.0302,2.0322,2.0321,2.0317,2.0281,2.0272,2.0269,2.0237,2.0253,2.0251,2.025,2.0249,2.019,2.019,0,0,0,0,0,0,2.0402,2.0395,2.035,2.0347,2.0374,2.0345,2.034,2.033,2.0302,2.0298,2.0317,2.0316,2.0275,2.0271,2.0267,2.0244,2.0251,2.0249,2.0248,2.0191,2.019,2.019,0,0,0,0,0,0,2.0404,2.0399,2.0351,2.0371,2.0364,2.0344,2.0333,2.033,2.0321,2.0298,2.0294,2.0312,2.0275,2.027,2.0248,2.0242,2.0248,2.0246,2.0191,2.0191,2.019,2.0199,0,0,0,0,0,0,2.0406,2.0399,2.0394,2.0371,2.0363,2.0335,2.0333,2.0329,2.0318,2.0317,2.0292,2.0288,2.0275,2.0252,2.0246,2.024,2.0245,2.0191,2.0191,2.019,2.0199,2.0199,2.0199,0,0,0,0,0,2.0408,2.0397,2.0393,2.0388,2.0356,2.0335,2.0331,2.0317,2.0317,2.0311,2.0296,2.0289,2.0244,2.025,2.0244,2.0236,2.0192,2.0191,2.019,2.0199,2.0199,2.0199,0,0,0,0,0,0,2.0419,2.0394,2.039,2.0372,2.0356,2.0333,2.0324,2.0317,2.03,2.03,2.0282,2.0277,2.0257,2.0244,2.0251,2.0217,2.0217,2.0215,2.0226,2.0226,2.0226,2.0229,2.0243,0,0,0,0,0,2.0419,2.0406,2.0384,2.037,2.0362,2.0345,2.0335,2.0326,2.0308,2.0301,2.0284,2.0266,2.0248,2.0236,2.0218,2.0198,2.0191,2.0189,2.0189,2.0189,2.0187,2.0174,2.0173,2.0187,2.0187,2.0187,0,0,2.042,2.0405,2.0397,2.0372,2.0359,2.0343,2.0339,2.0323,2.0311,2.0298,2.0277,2.0264,2.0243,2.0222,2.0211,2.0211,2.0182,2.0188,2.0188,2.0186,2.0173,2.0172,2.0171,2.0187,2.0187,2.0187,0,0,2.0413,2.0401,2.0387,2.0374,2.0354,2.0342,2.0339,2.0317,2.0308,2.0287,2.0277,2.0261,2.0231,2.0215,2.0204,2.019,2.0182,2.0185,2.0183,2.0171,2.0169,2.0168,2.0162,2.016,2.0183,2.0183,2.0183,0,2.0416,2.0394,2.0381,2.0365,2.0354,2.0343,2.0328,2.0315,2.029,2.0282,2.0282,2.0243,2.0227,2.0202,2.0199,2.019,2.0184,2.0187,2.0171,2.017,2.0168,2.0162,2.016,2.0184,2.0183,2.0183,2.0183,0,2.0397,2.0382,2.0373,2.035,2.0338,2.0323,2.0307,2.0295,2.0287,2.0275,2.0253,2.0234,2.0212,2.0205,2.0197,2.0178,2.0178,2.0175,2.0174,2.0167,2.0161,2.0159,2.0184,2.0184,2.0184,2.0184,0,0,2.0396,2.0366,2.0363,2.0352,2.0329,2.0316,2.03,2.0279,2.027,2.0252,2.0237,2.0211,2.0208,2.0195,2.0184,2.0173,2.0162,2.0171,2.017,2.0169,2.0139,2.0141,2.0139,2.0157,2.0157,2.0156,2.014,0,2.0386,2.0358,2.0346,2.0323,2.0307,2.0296,2.0281,2.0265,2.0253,2.0237,2.0222,2.0204,2.0202,2.0193,2.0182,2.0166,2.0156,2.0167,2.0141,2.014,2.0146,2.0136,2.0138,2.0124,2.0138,2.0138,2.0137,0,2.037,2.0354,2.0329,2.0307,2.03,2.0288,2.0267,2.0253,2.0233,2.0225,2.021,2.02,2.018,2.0182,2.0154,2.0162,2.015,2.0141,2.014,2.0136,2.0138,2.0131,2.0119,2.0117,2.0134,2.0134,2.0134,0,2.037,2.0342,2.0324,2.0315,2.0289,2.028,2.0269,2.025,2.0237,2.0219,2.0211,2.019,2.0178,2.0161,2.0145,2.0148,2.0118,2.0118,2.0109,2.011,2.0103,2.0104,2.0089,2.0097,2.0097,2.0097,2.0097,0,2.036,2.0345,2.0324,2.0313,2.0295,2.028,2.0263,2.0251,2.0233,2.0218,2.0206,2.0192,2.0172,2.0155,2.0142,2.012,2.0115,2.0106,2.0103,2.0107,2.0108,2.0099,2.0099,2.0097,2.0097,2.0097,2.0097,0,2.0357,2.0343,2.0322,2.0299,2.0293,2.0281,2.0261,2.0248,2.0236,2.0216,2.0211,2.019,2.0169,2.0151,2.0123,2.0114,2.0091,2.0088,2.0098,2.0096,2.0088,2.0088,2.0066,2.0061,2.0074,2.0074,2.0074,0,2.0351,2.034,2.0316,2.0305,2.0294,2.0278,2.0265,2.025,2.0237,2.0213,2.0203,2.0182,2.0163,2.013,2.0111,2.0089,2.0084,2.0078,2.0081,2.0085,2.0083,2.0083,2.0081,2.0077,2.0077,2.0077,2.0077,0,2.0341,2.0335,2.0318,2.0299,2.0285,2.0269,2.0252,2.0244,2.0225,2.0211,2.019,2.0176,2.0147,2.0125,2.0101,2.0087,2.0078,2.0076,2.0073,2.0076,2.0083,2.0078,2.0096,2.0077,2.0077,2.0077,2.0077,2.0077,2.0336,2.0325,2.0307,2.0288,2.0274,2.0259,2.0246,2.0231,2.0214,2.019,2.0182,2.0159,2.0138,2.0105,2.0091,2.0073,2.0071,2.0067,2.0065,2.0064,2.0064,2.0086,2.0068,2.0068,2.0068,2.0068,2.0068,0,2.0325,2.0312,2.0296,2.0273,2.0258,2.0253,2.0234,2.0221,2.0202,2.0184,2.0167,2.0141,2.0119,2.0099,2.0076,2.0064,2.006,2.0059,2.0059,2.0056,2.0067,2.0072,2.0063,2.0063,2.0063,2.0063,2.0063,2.0063,2.0318,2.0298,2.0289,2.0262,2.0249,2.0228,2.0217,2.0202,2.0188,2.016,2.0143,2.013,2.011,2.0085,2.0064,2.0059,2.005,2.005,2.0043,2.0054,2.0055,2.0056,2.006,2.0049,2.0049,2.0033,2.0033,2.0033]}]]